User: anonymous   Login
Location: Devargunta
(16.7631°N, 80.9077°E)
Time: 11:10:18
(UTC+00:00)
Language:

Cosmos 540 Rocket - Orbit

View from above orbital plane
View from above orbital plane
View from above satellite
View from above satellite

Ground track
Ground track

The orbit data is extracted from the following two-line orbital elements,

1 06324U 72104B   21166.77540602  .00000024  00000-0  15029-4 0  9993
2 06324  74.0778 280.7145 0008500  38.5386 321.6376 14.43532398545906
Epoch (UTC): 15 June 2021 18:36:35
Eccentricity: 0.0008500
inclination: 74.0778°
perigee height: 741 km
apogee height: 753 km
right ascension of ascending node: 280.7145°
argument of perigee: 38.5386°
revolutions per day: 14.43532398
mean anomaly at epoch: 321.6376°
orbit number at epoch: 54590

The dashed part of the orbit path shows where the satellite is in the earth's shadow,  

DLR